This is the latest recevied weather packets stored in our database for station/object N1ICS-1. If no packets are shown the sender has not sent any weather packets the latest 10 day(s).
| Time | Temp. | Humidity | Pressure | Rain* | Wind** | Luminosity | Snow |
|---|---|---|---|---|---|---|---|
| 1778091602 | 12.78° C | 53% | 1014.8 hPa | 0 mm | - | 388 W/m² | - |
| 1778091302 | 12.78° C | 51% | 1014.9 hPa | 0 mm | - | 413 W/m² | - |
| 1778091002 | 12.78° C | 51% | 1015 hPa | 0 mm | - | 461 W/m² | - |
| 1778090701 | 12.78° C | 57% | 1014.8 hPa | 0 mm | - | 529 W/m² | - |
| 1778090402 | 12.22° C | 50% | 1014.7 hPa | 0 mm | - | 443 W/m² | - |
| 1778090102 | 12.22° C | 56% | 1014.7 hPa | 0 mm | - | 443 W/m² | - |
| 1778089802 | 12.22° C | 55% | 1014.8 hPa | 0 mm | - | 415 W/m² | - |
| 1778089502 | 12.22° C | 54% | 1015 hPa | 0 mm | - | 505 W/m² | - |
| 1778089202 | 12.22° C | 58% | 1014.8 hPa | 0 mm | - | 520 W/m² | - |
| 1778088902 | 12.22° C | 53% | 1014.9 hPa | 0 mm | - | 471 W/m² | - |
| 1778088602 | 12.22° C | 54% | 1015 hPa | 0 mm | - | 481 W/m² | - |
| 1778088302 | 12.22° C | 55% | 1014.9 hPa | 0 mm | - | 474 W/m² | - |
| 1778088002 | 12.22° C | 56% | 1014.9 hPa | 0 mm | - | 493 W/m² | - |
| 1778087703 | 12.22° C | 60% | 1014.9 hPa | 0 mm | - | 442 W/m² | - |
| 1778087402 | 12.22° C | 56% | 1014.9 hPa | 0 mm | - | 431 W/m² | - |
| 1778087102 | 11.67° C | 59% | 1015.1 hPa | 0 mm | - | 389 W/m² | - |
| 1778086802 | 11.67° C | 57% | 1015.1 hPa | 0 mm | - | 346 W/m² | - |
| 1778086502 | 11.67° C | 54% | 1015.2 hPa | 0 mm | - | 332 W/m² | - |
| 1778086202 | 11.67° C | 57% | 1015.2 hPa | 0 mm | - | 326 W/m² | - |
| 1778085902 | 11.67° C | 59% | 1015.1 hPa | 0 mm | - | 300 W/m² | - |
| 1778085601 | 11.67° C | 58% | 1015.1 hPa | 0 mm | - | 310 W/m² | - |
| 1778085302 | 11.67° C | 61% | 1015.2 hPa | 0 mm | - | 323 W/m² | - |
| 1778085002 | 11.67° C | 57% | 1015.4 hPa | 0 mm | - | 302 W/m² | - |
| 1778084702 | 12.22° C | 57% | 1015.2 hPa | 0 mm | - | 390 W/m² | - |
| 1778084402 | 11.67° C | 57% | 1015.2 hPa | 0 mm | - | 457 W/m² | - |
* Rain latest hour (hover to see other rain measurements)
** Current wind speed in m/s (hover to see current wind gust speed)